[[{"header":{"parameterUnit":"m.s-1","parameterCategory":1,"la1":30.2991,"la2":30.254,"lo1":-89.0895,"lo2":-89.0444,"dy":0.0017,"dx":0.0017,"nx":28,"ny":28,"refTime":"2024-07-13T21:00:00:Z","depth":0,"parameterNumber":2,"parameterNumberName":"U-component_of_WINDS"},"data":[0,0,0,0,0,0,0,0,0,0,0,0,0,0,0,0,0,0,0,0,0,0,0,0,0,0,0,0,0,0,0,0,0,0,0,0,0,0,0,0,0,0,0,0,0,0,0,0,0,0,0,0,0,0,0,0,0,0,4.9101,4.9102,0,4.9277,4.9279,4.9281,4.9221,4.9217,4.9213,4.921,4.9389,4.9397,4.9406,0,0,0,0,0,0,0,0,0,0,0,0,0,4.8709,4.8716,4.91,4.9103,4.9105,4.9277,4.9279,4.9282,4.9222,4.9217,4.9212,4.9208,4.9387,4.9396,4.9407,0,0,0,0,0,0,0,0,0,0,0,0,0,4.8882,4.8719,4.91,4.9096,4.9097,4.9276,4.9279,4.9282,4.9223,4.9217,4.9211,4.9206,4.9383,4.9396,4.9408,4.9602,0,0,4.9446,4.9452,0,0,0,0,0,0,0,0,4.8872,4.8896,4.9094,4.9096,4.9098,4.9221,4.9207,4.939,4.9224,4.9175,4.9209,4.9203,4.9338,4.9354,4.94,4.961,4.9618,4.9448,4.9455,4.9461,4.9464,0,0,0,0,0,0,0,4.886,4.8888,4.917,4.9097,4.91,4.9084,4.9102,4.9241,4.9287,4.9179,4.9175,4.9197,4.9338,4.9388,4.9404,4.9621,4.9447,4.9458,4.9466,4.9471,4.9997,5.0003,0,0,0,0,0,0,4.8847,4.8878,4.9165,4.9176,4.8968,4.9096,4.9116,4.9188,4.9285,4.9294,4.9201,4.9193,4.9369,4.9389,4.941,4.9642,4.946,4.9472,4.948,4.9991,4.9999,5.0006,0,0,0,0,0,0,4.8839,4.8873,4.9158,4.9026,4.9061,4.9109,4.9189,4.9194,4.9244,4.9302,4.931,4.9244,4.9365,4.9392,4.9554,4.9647,4.9478,4.9489,4.9983,4.9993,5.0002,5.0108,0,0,0,0,0,0,4.8828,4.8871,4.8945,4.9028,4.9068,4.93,4.9195,4.9202,4.9266,4.9257,4.9344,4.9353,4.9363,4.9536,4.9567,4.9661,4.9499,4.9975,4.9988,4.9999,5.0096,5.012,5.014,0,0,0,0,0,4.8814,4.8968,4.8949,4.8984,4.9163,4.9306,4.9328,4.9337,4.9274,4.9349,4.9386,4.9351,4.9632,4.9553,4.9587,4.9687,4.9969,4.9984,4.9998,5.0087,5.0116,5.014,0,0,0,0,0,0,4.8895,4.8979,4.8959,4.9145,4.9219,4.9295,4.939,4.9367,4.946,4.9448,4.9453,4.9474,4.964,4.968,4.959,4.9879,4.9791,4.9813,4.9847,4.9875,4.9896,4.9882,4.951,0,0,0,0,0,4.8934,4.9044,4.9111,4.9269,4.9307,4.9342,4.9405,4.9405,4.9481,4.9512,4.9561,4.9636,4.9741,4.981,4.991,5.0102,5.0119,5.0188,5.021,5.0227,5.0246,5.0348,5.0379,5.0053,5.0053,5.0053,0,0,4.9017,4.9076,4.9145,4.9286,4.9343,4.9456,4.9369,4.9492,4.9575,4.953,4.9686,4.9725,4.9809,4.9986,5.0067,5.0025,5.034,5.0246,5.026,5.0269,5.0366,5.0397,5.0425,5.0063,5.0061,5.0059,0,0,4.9224,4.9281,4.9417,4.9476,4.9564,4.9587,4.9619,4.97,4.9724,4.9881,4.9849,4.9948,5.0129,5.019,5.0244,5.0474,5.0444,5.0507,5.0621,5.0721,5.0746,5.0769,5.0849,5.0878,5.0525,5.0526,5.0526,0,4.9315,4.9484,4.949,4.9616,4.9678,4.9643,4.9781,4.9838,4.9954,4.9997,4.9948,5.0174,5.0228,5.0419,5.0475,5.0521,5.0557,5.0496,5.0742,5.0765,5.0787,5.0863,5.0893,5.0532,5.0532,5.0531,5.053,0,4.9591,4.9708,4.9808,4.992,4.9994,5.0125,5.015,5.0224,5.0218,5.0245,5.0404,5.0468,5.058,5.0625,5.062,5.0815,5.0785,5.074,5.0651,5.0824,5.0896,5.0926,5.0542,5.054,5.0538,5.0536,0,0,4.9854,4.9968,5.0004,5.0054,5.0148,5.0238,5.0367,5.0476,5.0539,5.062,5.0727,5.0881,5.0839,5.0901,5.0903,5.0991,5.1166,5.0934,5.0936,5.0973,5.1382,5.1414,5.1448,5.1147,5.1153,5.1158,5.1374,0,5.0067,5.0294,5.0303,5.0509,5.0616,5.0585,5.0697,5.0766,5.0795,5.089,5.0921,5.103,5.0967,5.1004,5.109,5.1127,5.1248,5.1111,5.1245,5.125,5.1224,5.1486,5.1521,5.1723,5.1403,5.1407,5.1411,0,5.0346,5.0436,5.0653,5.073,5.0775,5.0876,5.0976,5.1068,5.1145,5.116,5.1229,5.1217,5.1348,5.1256,5.1435,5.1342,5.1398,5.1424,5.1432,5.1443,5.134,5.1503,5.1787,5.1817,5.1455,5.1452,5.1449,0,5.0514,5.0689,5.084,5.0885,5.0979,5.105,5.1093,5.1164,5.1229,5.1317,5.1358,5.146,5.1516,5.1594,5.161,5.1542,5.1789,5.1699,5.1803,5.1803,5.1855,5.1851,5.2151,5.1895,5.1894,5.1893,5.1893,0,5.075,5.0884,5.0917,5.101,5.1158,5.1167,5.1313,5.1351,5.1415,5.1514,5.1493,5.1586,5.1602,5.1699,5.1712,5.1857,5.1883,5.1897,5.1899,5.1899,5.1896,5.1934,5.1919,5.1901,5.19,5.1898,5.1897,0,5.0962,5.099,5.1153,5.1229,5.1251,5.1356,5.1421,5.151,5.1536,5.1662,5.1692,5.1733,5.1846,5.187,5.2004,5.2012,5.2184,5.2173,5.2158,5.2156,5.2258,5.2248,5.2591,5.2635,5.2352,5.2354,5.2357,0,5.111,5.1212,5.1299,5.1363,5.1409,5.1515,5.158,5.1593,5.1663,5.1758,5.1835,5.1945,5.2034,5.2215,5.2257,5.2358,5.2348,5.2461,5.2363,5.2359,5.2347,5.234,5.235,5.2479,5.2482,5.2485,5.2487,0,5.1369,5.1378,5.1474,5.1575,5.1654,5.1734,5.181,5.1865,5.1887,5.1966,5.2081,5.215,5.2286,5.2395,5.2497,5.2539,5.2517,5.2518,5.2547,5.2546,5.2533,5.2539,5.2207,5.2509,5.2507,5.2506,5.2504,5.2503,5.1553,5.1641,5.1715,5.1822,5.1881,5.1953,5.2039,5.2077,5.2173,5.2284,5.2286,5.2411,5.2485,5.2619,5.2668,5.2765,5.2729,5.2772,5.2783,5.2793,5.2801,5.2519,5.2784,5.2783,5.2783,5.2782,5.2782,0,5.1809,5.1855,5.1954,5.2061,5.2145,5.2117,5.22,5.2272,5.2382,5.2453,5.254,5.2672,5.2777,5.2827,5.2931,5.2999,5.2991,5.3026,5.302,5.303,5.2828,5.2791,5.303,5.303,5.303,5.303,5.303,5.303,5.1952,5.2099,5.2117,5.2293,5.2338,5.246,5.2509,5.2575,5.2631,5.2778,5.2866,5.2898,5.296,5.3068,5.3163,5.3175,5.3214,5.3253,5.326,5.307,5.3044,5.302,5.2986,5.3262,5.3262,5.3453,5.3455,5.3456]},{"header":{"parameterUnit":"m.s-1","parameterCategory":1,"la1":30.2991,"la2":30.254,"lo1":-89.0895,"lo2":-89.0444,"dy":0.0017,"dx":0.0017,"nx":28,"ny":28,"refTime":"2024-07-13T21:00:00:Z","depth":0,"parameterNumber":3,"parameterNumberName":"V-component_of_WINDS"},"data":[0,0,0,0,0,0,0,0,0,0,0,0,0,0,0,0,0,0,0,0,0,0,0,0,0,0,0,0,0,0,0,0,0,0,0,0,0,0,0,0,0,0,0,0,0,0,0,0,0,0,0,0,0,0,0,0,0,0,1.0283,1.0283,0,1.0261,1.0261,1.0261,1.0222,1.0221,1.0221,1.022,1.0198,1.0198,1.0198,0,0,0,0,0,0,0,0,0,0,0,0,0,1.0289,1.0289,1.0283,1.0283,1.0282,1.0261,1.0261,1.0261,1.0222,1.0221,1.0221,1.022,1.0198,1.0198,1.0198,0,0,0,0,0,0,0,0,0,0,0,0,0,1.0279,1.0289,1.0283,1.0261,1.0259,1.0261,1.0261,1.0261,1.0223,1.0221,1.022,1.0219,1.0198,1.0198,1.0198,1.0221,0,0,1.0198,1.0199,0,0,0,0,0,0,0,0,1.028,1.0279,1.0264,1.0262,1.026,1.0243,1.0255,1.0247,1.0223,1.0236,1.022,1.0219,1.0214,1.0213,1.0211,1.022,1.0219,1.0198,1.0199,1.0199,1.0199,0,0,0,0,0,0,0,1.028,1.0279,1.0274,1.0264,1.0261,1.0251,1.0248,1.0253,1.0231,1.0235,1.0232,1.023,1.0212,1.0211,1.021,1.0218,1.0198,1.0199,1.0199,1.0199,1.0242,1.0243,0,0,0,0,0,0,1.0284,1.028,1.0275,1.0274,1.0267,1.0252,1.0249,1.025,1.0231,1.0227,1.0231,1.0228,1.0211,1.021,1.0209,1.0233,1.0199,1.0199,1.0199,1.024,1.0242,1.0243,0,0,0,0,0,0,1.0285,1.0284,1.0276,1.0276,1.0274,1.0253,1.0254,1.025,1.0248,1.0228,1.0224,1.0234,1.021,1.0209,1.0217,1.0232,1.0199,1.0199,1.0239,1.0241,1.0242,1.0281,0,0,0,0,0,0,1.0285,1.0285,1.0294,1.0277,1.0274,1.0285,1.0255,1.025,1.0249,1.0245,1.023,1.0226,1.0209,1.0217,1.0218,1.0231,1.0199,1.0238,1.024,1.0242,1.0279,1.0284,1.0289,0,0,0,0,0,1.0285,1.0306,1.0295,1.0294,1.0286,1.0286,1.0285,1.0265,1.025,1.0258,1.0245,1.0227,1.023,1.0219,1.0219,1.0232,1.0237,1.0239,1.0242,1.0277,1.0283,1.0289,0,0,0,0,0,0,1.0327,1.0304,1.0291,1.0307,1.0299,1.028,1.029,1.0273,1.027,1.0266,1.0242,1.0239,1.025,1.0242,1.023,1.0252,1.023,1.0233,1.0257,1.0263,1.0268,1.0269,1.0199,0,0,0,0,0,1.0338,1.0341,1.032,1.0336,1.0333,1.0312,1.0312,1.0297,1.0288,1.0284,1.0272,1.0263,1.0262,1.0262,1.026,1.0277,1.0272,1.0286,1.0291,1.0295,1.0298,1.0304,1.0309,1.0251,1.0251,1.0251,0,0,1.036,1.0348,1.0352,1.0344,1.0336,1.0339,1.031,1.0315,1.0316,1.0285,1.0292,1.0282,1.0271,1.0283,1.0288,1.0277,1.0312,1.0298,1.0302,1.0302,1.0307,1.0312,1.0317,1.0252,1.0252,1.0252,0,0,1.0403,1.0395,1.0406,1.0398,1.0386,1.0372,1.0374,1.0357,1.0349,1.0356,1.0332,1.0333,1.0332,1.0324,1.032,1.0356,1.0338,1.0356,1.0382,1.0388,1.0393,1.0397,1.0408,1.0413,1.0358,1.0359,1.0359,0,1.0433,1.0437,1.0414,1.042,1.0416,1.0387,1.0398,1.0391,1.0379,1.0377,1.0364,1.036,1.0351,1.036,1.0368,1.0367,1.0368,1.0358,1.0394,1.0398,1.0401,1.0412,1.0416,1.0361,1.036,1.036,1.036,0,1.0473,1.0475,1.0486,1.0474,1.0472,1.048,1.0458,1.0458,1.0442,1.0429,1.0434,1.0421,1.0415,1.0416,1.0402,1.0422,1.0415,1.0399,1.0377,1.0409,1.0419,1.0423,1.0364,1.0363,1.0362,1.0362,0,0,1.0543,1.0517,1.0521,1.0514,1.0497,1.0498,1.0504,1.0497,1.0497,1.0488,1.0492,1.049,1.0474,1.0469,1.0453,1.0459,1.0486,1.0441,1.044,1.0449,1.0505,1.0517,1.0523,1.0473,1.0474,1.0475,1.0506,0,1.0582,1.059,1.0569,1.0582,1.0583,1.0554,1.0559,1.0548,1.0535,1.0533,1.0518,1.0517,1.0496,1.0493,1.0497,1.0482,1.0497,1.0479,1.0475,1.0475,1.0479,1.0528,1.0541,1.0571,1.0509,1.051,1.0511,0,1.0629,1.0622,1.0635,1.0615,1.0614,1.0619,1.0609,1.0608,1.0595,1.0584,1.0578,1.0558,1.0561,1.0539,1.0542,1.053,1.0527,1.0519,1.0519,1.0518,1.0495,1.0527,1.0581,1.0585,1.0516,1.0516,1.0516,0,1.0677,1.0671,1.0677,1.0672,1.0649,1.0653,1.0643,1.0629,1.0625,1.0616,1.0613,1.0606,1.0601,1.0595,1.0573,1.056,1.0577,1.0555,1.0568,1.0568,1.0573,1.0573,1.0626,1.0572,1.0572,1.0572,1.0572,0,1.0722,1.0731,1.0698,1.0702,1.0711,1.0685,1.0694,1.0681,1.0668,1.0668,1.0642,1.0643,1.0615,1.0611,1.0594,1.0598,1.0596,1.0587,1.0582,1.0589,1.059,1.0587,1.0584,1.0573,1.0573,1.0573,1.0573,0,1.0778,1.0757,1.0761,1.0738,1.0732,1.0739,1.0719,1.0721,1.0705,1.0705,1.0704,1.0679,1.0674,1.0651,1.0641,1.0629,1.0638,1.0629,1.0643,1.0639,1.0654,1.0652,1.0706,1.0711,1.0655,1.0655,1.0656,0,1.0808,1.0814,1.0791,1.0789,1.078,1.0778,1.0773,1.0747,1.0744,1.0727,1.0731,1.0723,1.0716,1.0708,1.0689,1.068,1.067,1.0689,1.0669,1.0675,1.0669,1.0669,1.0668,1.0694,1.0695,1.0696,1.0696,0,1.0864,1.0852,1.0847,1.0837,1.0832,1.0823,1.0813,1.0813,1.0784,1.078,1.0774,1.0768,1.0757,1.0749,1.0736,1.0725,1.0705,1.0702,1.0705,1.0712,1.0719,1.0714,1.0654,1.0702,1.0701,1.0701,1.07,1.07,1.0907,1.091,1.0893,1.0888,1.0877,1.0867,1.0867,1.085,1.0844,1.0833,1.0817,1.0813,1.0796,1.0777,1.0767,1.0762,1.0751,1.0756,1.0756,1.0758,1.076,1.072,1.076,1.076,1.076,1.076,1.0759,0,1.096,1.0947,1.0942,1.0928,1.0922,1.0903,1.089,1.0887,1.0883,1.0869,1.0862,1.0853,1.0845,1.0824,1.0813,1.0813,1.0803,1.0811,1.081,1.0808,1.0771,1.077,1.0819,1.0819,1.0819,1.0819,1.0819,1.0819,1.0987,1.0991,1.0977,1.0973,1.096,1.0955,1.0949,1.0939,1.0927,1.0919,1.0912,1.0898,1.088,1.0867,1.0858,1.0852,1.0849,1.0859,1.085,1.0816,1.0811,1.0805,1.0804,1.0859,1.0859,1.0887,1.0887,1.0887]}]]